Indianapolis, IN

4:21 AM EDT on July 17, 2019 (GMT -0400)
Indianapolis Terry

Weather History for KTYQ - May, 2019

Change the Weather History Date:

Sunday, May 19, 2019

  Actual Average (WUND) Record (WUND)
Temperature  
Mean Temperature 66 °F -  
Max Temperature 72 °F - - (-1)
Min Temperature 61 °F - - (-1)
Cooling Degree Days 2    
Growing Degree Days 16 (Base 50)    
Moisture  
Dew Point 63 °F    
Average Humidity 88    
Maximum Humidity 100    
Minimum Humidity 73    
Precipitation  
Precipitation 0.12 in - - ()
Sea Level Pressure  
Sea Level Pressure 29.78 in    
Wind  
Wind Speed 12 mph ()    
Max Wind Speed 26 mph    
Max Gust Speed 32 mph    
Visibility 9.5 miles    
Events Rain , Thunderstorm    
Averages and records for this station are not official NWS values.
T = Trace of Precipitation, MM = Missing Value Source: Averaged Metar Reports

Daily Weather History Graph

Daily Weather History Graph

Search for Another Location

Airport or City:

Astronomy

May. 19, 2019 Rise Set
Actual Time 6:26 AM EDT 8:57 PM EDT
Civil Twilight 5:55 AM EDT 9:28 PM EDT
Nautical Twilight 5:16 AM EDT 10:06 PM EDT
Astronomical Twilight 4:33 AM EDT 10:50 PM EDT
Moon 9:56 PM EDT (5/19) 7:11 AM EDT (5/19)
Length of Visible Light 15h 32m
Length of Day
14h 30m
Full, 99% of the Moon is Illuminated
May 19
Full
May 26
Last Quarter
Jun 3
New
Jun 10
First Quarter
Jun 17
Full

Hourly Weather History & Observations

Time (EDT) Temp. Dew Point Humidity Pressure Visibility Wind Dir Wind Speed Gust Speed Precip Events Conditions
12:15 AM 68.5 °F 61.0 °F 77% 29.83 in 10.0 mi South 8.1 mph - N/A   Scattered Clouds
12:35 AM 70.0 °F 61.2 °F 73% 29.82 in 10.0 mi South 10.4 mph - N/A   Clear
12:55 AM 70.2 °F 61.5 °F 74% 29.81 in 10.0 mi South 10.4 mph - N/A   Clear
1:15 AM 70.7 °F 62.1 °F 74% 29.81 in 10.0 mi South 12.7 mph - N/A   Clear
1:35 AM 70.9 °F 62.4 °F 75% 29.80 in 10.0 mi South 10.4 mph - N/A   Clear
1:55 AM 70.7 °F 62.4 °F 75% 29.80 in 10.0 mi South 10.4 mph - N/A   Clear
2:15 AM 70.5 °F 62.2 °F 75% 29.80 in 10.0 mi South 12.7 mph - N/A   Clear
2:35 AM 70.3 °F 62.6 °F 76% 29.80 in 10.0 mi South 12.7 mph - N/A   Clear
2:55 AM 70.2 °F 62.6 °F 77% 29.80 in 10.0 mi South 12.7 mph - N/A   Clear
3:15 AM 70.5 °F 62.2 °F 75% 29.79 in 10.0 mi South 12.7 mph 19.6 mph N/A   Clear
3:35 AM 70.0 °F 62.1 °F 76% 29.78 in 10.0 mi South 13.8 mph 19.6 mph N/A   Clear
3:55 AM 69.8 °F 62.6 °F 78% 29.78 in 10.0 mi South 13.8 mph - N/A   Clear
4:15 AM 69.8 °F 62.6 °F 78% 29.78 in 10.0 mi South 12.7 mph - N/A   Clear
4:35 AM 69.6 °F 62.2 °F 77% 29.77 in 10.0 mi South 10.4 mph - N/A   Clear
4:55 AM 69.1 °F 62.2 °F 79% 29.77 in 10.0 mi South 12.7 mph - N/A   Clear
5:15 AM 69.1 °F 62.6 °F 80% 29.77 in 10.0 mi South 11.5 mph - N/A   Clear
5:35 AM 69.1 °F 62.6 °F 80% 29.77 in 10.0 mi South 12.7 mph - N/A   Clear
5:55 AM 69.4 °F 62.4 °F 78% 29.76 in 10.0 mi South 13.8 mph 19.6 mph N/A   Scattered Clouds
6:15 AM 69.1 °F 62.8 °F 80% 29.76 in 10.0 mi SSW 13.8 mph 18.4 mph N/A Rain Light Rain
6:35 AM 67.5 °F 63.7 °F 88% 29.76 in 10.0 mi SSW 15.0 mph 19.6 mph N/A Rain Light Rain
6:55 AM 68.0 °F 63.5 °F 85% 29.75 in 10.0 mi South 13.8 mph 19.6 mph N/A   Mostly Cloudy
7:15 AM 67.6 °F 63.7 °F 87% 29.76 in 10.0 mi SSW 8.1 mph - N/A   Mostly Cloudy
7:35 AM 67.6 °F 63.7 °F 87% 29.76 in 10.0 mi South 11.5 mph - N/A   Overcast
7:55 AM 68.4 °F 63.9 °F 85% 29.76 in 10.0 mi South 10.4 mph - N/A   Overcast
8:15 AM 68.5 °F 64.0 °F 85% 29.76 in 10.0 mi South 12.7 mph 16.1 mph N/A   Scattered Clouds
8:35 AM 70.0 °F 64.4 °F 82% 29.76 in 10.0 mi SSW 17.3 mph 23.0 mph N/A   Clear
8:55 AM 70.5 °F 63.9 °F 79% 29.76 in 10.0 mi SSW 13.8 mph 20.7 mph N/A   Clear
9:15 AM 72.0 °F 64.0 °F 76% 29.76 in 10.0 mi SSW 17.3 mph 26.5 mph N/A   Scattered Clouds
9:35 AM 70.7 °F 63.9 °F 79% 29.78 in 10.0 mi SSW 20.7 mph 25.3 mph N/A   Mostly Cloudy
9:55 AM 69.8 °F 64.2 °F 82% 29.78 in 10.0 mi SSW 13.8 mph 24.2 mph N/A   Overcast
10:15 AM 69.1 °F 64.0 °F 84% 29.79 in 10.0 mi SSW 17.3 mph 27.6 mph N/A   Overcast
10:35 AM 68.9 °F 64.0 °F 84% 29.79 in 10.0 mi SSW 19.6 mph 31.1 mph N/A   Overcast
10:55 AM 68.9 °F 63.9 °F 84% 29.79 in 10.0 mi SW 18.4 mph 29.9 mph N/A   Overcast
11:15 AM 66.7 °F 64.6 °F 93% 29.80 in 10.0 mi SW 26.5 mph 32.2 mph N/A Rain Light Rain
11:35 AM 66.4 °F 64.2 °F 93% 29.80 in 10.0 mi SW 17.3 mph 26.5 mph N/A   Light Drizzle
11:55 AM 66.2 °F 63.7 °F 92% 29.79 in 10.0 mi SW 15.0 mph 25.3 mph N/A   Light Drizzle
12:15 PM 67.1 °F 63.5 °F 88% 29.79 in 10.0 mi SSW 13.8 mph 25.3 mph N/A   Mostly Cloudy
12:35 PM 66.2 °F 63.7 °F 92% 29.78 in 10.0 mi SSW 13.8 mph 18.4 mph N/A Rain Light Rain
12:55 PM 65.1 °F 64.9 °F 99% 29.79 in 3.0 mi SSW 13.8 mph 21.9 mph 0.02 in Rain Rain
1:15 PM 64.4 °F 64.4 °F 100% 29.79 in 4.0 mi SW 21.9 mph 27.6 mph 0.01 in Rain Rain
1:35 PM 63.5 °F 63.5 °F 100% 29.80 in 4.0 mi SSW 12.7 mph - 0.03 in Rain Light Rain
1:55 PM 62.8 °F 62.6 °F 99% 29.78 in 5.0 mi South 9.2 mph - 0.03 in Rain Rain
2:15 PM 62.6 °F 62.6 °F 100% 29.79 in 7.0 mi SSW 12.7 mph - N/A Rain Rain
2:35 PM 62.4 °F 62.4 °F 100% 29.77 in 10.0 mi South 12.7 mph 16.1 mph 0.02 in Rain Light Rain
2:55 PM 63.7 °F 63.7 °F 100% 29.77 in 7.0 mi South 13.8 mph 17.3 mph 0.02 in Rain Light Rain
3:15 PM 65.8 °F 65.7 °F 99% 29.76 in 10.0 mi South 13.8 mph - N/A   Scattered Clouds
3:35 PM 66.0 °F 65.1 °F 97% 29.77 in 10.0 mi SW 12.7 mph 18.4 mph N/A   Mostly Cloudy
3:55 PM 67.8 °F 66.2 °F 95% 29.76 in 10.0 mi SSW 15.0 mph 20.7 mph N/A   Mostly Cloudy
4:15 PM 69.4 °F 66.2 °F 89% 29.75 in 10.0 mi SSW 13.8 mph 21.9 mph N/A   Scattered Clouds
4:35 PM 70.2 °F 66.2 °F 87% 29.75 in 10.0 mi South 17.3 mph 23.0 mph N/A   Mostly Cloudy
4:55 PM 69.3 °F 65.3 °F 87% 29.75 in 10.0 mi SW 18.4 mph 24.2 mph N/A   Overcast
5:15 PM 70.2 °F 64.8 °F 83% 29.75 in 10.0 mi SSW 18.4 mph 23.0 mph N/A   Mostly Cloudy
5:35 PM 71.1 °F 65.5 °F 82% 29.75 in 10.0 mi SSW 18.4 mph 23.0 mph N/A Thunderstorm Mostly Cloudy
5:55 PM 71.2 °F 65.8 °F 83% 29.74 in 10.0 mi South 11.5 mph - N/A   Mostly Cloudy
6:15 PM 70.7 °F 65.8 °F 85% 29.74 in 10.0 mi South 10.4 mph - N/A Thunderstorm Mostly Cloudy
6:35 PM 64.2 °F 60.4 °F 87% 29.74 in 10.0 mi West 15.0 mph 24.2 mph N/A   Overcast
6:55 PM 62.6 °F 62.6 °F 100% 29.75 in 4.0 mi SW 18.4 mph 24.2 mph 0.05 in   Overcast
7:15 PM 62.8 °F 62.8 °F 100% 29.75 in 10.0 mi SW 9.2 mph - N/A   Mostly Cloudy
7:35 PM 62.8 °F 62.6 °F 99% 29.75 in 10.0 mi SW 9.2 mph - N/A   Scattered Clouds
7:55 PM 63.5 °F 63.5 °F 100% 29.76 in 10.0 mi SW 9.2 mph - N/A   Clear
8:15 PM 64.4 °F 63.7 °F 98% 29.77 in 10.0 mi SW 10.4 mph - N/A   Scattered Clouds
8:35 PM 64.4 °F 63.3 °F 96% 29.78 in 10.0 mi SW 10.4 mph 17.3 mph N/A   Scattered Clouds
8:55 PM 63.5 °F 63.1 °F 99% 29.78 in 10.0 mi SW 9.2 mph - N/A   Scattered Clouds
9:15 PM 63.5 °F 63.0 °F 98% 29.79 in 10.0 mi WSW 10.4 mph - N/A   Clear
9:35 PM 63.3 °F 62.6 °F 97% 29.79 in 10.0 mi SW 9.2 mph - N/A   Clear
9:55 PM 63.1 °F 62.2 °F 97% 29.80 in 10.0 mi SW 10.4 mph - N/A   Clear
10:15 PM 62.8 °F 62.4 °F 99% 29.82 in 10.0 mi SW 10.4 mph - N/A   Clear
10:35 PM 62.4 °F 62.1 °F 99% 29.83 in 10.0 mi WSW 9.2 mph - N/A   Clear
10:55 PM 62.1 °F 61.7 °F 99% 29.83 in 10.0 mi SW 10.4 mph - N/A   Clear
11:15 PM 61.2 °F 61.2 °F 100% 29.84 in 10.0 mi WSW 8.1 mph - N/A   Clear
11:35 PM 61.2 °F 60.8 °F 99% 29.84 in 10.0 mi SW 9.2 mph - N/A   Clear
11:55 PM 61.0 °F 60.1 °F 97% 29.84 in 10.0 mi WSW 8.1 mph - N/A   Clear